Milford, Utah Weather observations

Data are for observation ending at time listed.
 Day   Time    Ave.   Ave.  Ave.  Vector   Max.   Stn.    Total    Solar   Ave.  
  of    of     Air    Rel.  Wind   Wind    Wind   Baro.  Precip.   Rad.    Soil  
Year   Day     Temp.  Hum.  Speed  Dir.    Gust   Pres.                    Temp. 
2017   (MST)    F      %     mph   deg.    mph     mb.     in.     W/m2     F   
------------------------------------------------------------------------------
 323    2:20   14.7    83    0.0     0      0.0   849.1    0.00       0    44.6
 323    2:30   14.9    79    1.1   176      2.0   849.1    0.00       0    44.4
 323    2:40   14.3    79    0.5   176      1.0   849.1    0.00       0    44.4
 323    2:50   14.7    83    0.1   176      1.1   849.1    0.00       0    44.4
 323    3:00   14.9    86    0.3   176      1.4   849.1    0.00       0    44.3
 323    3:10   14.9    88    0.3   236      1.6   849.0    0.00       0    44.3
 323    3:20   15.1    88    1.0   251      1.8   849.0    0.00       0    44.3
 323    3:30   15.2    88    0.5   250      1.6   849.0    0.00       0    44.1
 323    3:40   15.3    88    0.0     0      0.0   848.9    0.00       0    44.1
 323    3:50   14.4    86    0.7   193      1.9   848.9    0.00       0    44.1
 323    4:00   12.5    85    0.5   193      1.0   848.8    0.00       0    44.1
 323    4:10   12.4    86    0.2   193      0.9   848.6    0.00       0    44.0
 323    4:20   12.8    87    0.2   193      0.7   848.5    0.00       0    43.9
 323    4:30   13.2    87    0.2   193      1.2   848.4    0.00       0    43.8
 323    4:40   13.3    86    0.9   193      1.5   848.4    0.00       0    44.0
 323    4:50   13.3    88    1.1   193      1.7   848.2    0.00       0    43.9
 323    5:00   13.8    89    0.9   195      1.8   848.1    0.00       0    43.9
 323    5:10   14.3    89    1.0   235      2.8   848.1    0.00       0    43.8
 323    5:20   14.6    89    1.0   246      2.3   848.1    0.00       0    43.8
 323    5:30   14.6    89    0.3   249      1.2   848.1    0.00       0    43.7
 323    5:40   14.4    89    0.9   234      1.8   848.1    0.00       0    43.7
 323    5:50   14.0    89    1.0   233      1.9   848.1    0.00       0    43.7
 323    6:00   13.4    88    1.1   242      2.1   848.0    0.00       0    43.7
 323    6:10   13.4    87    0.9   252      2.3   848.0    0.00       0    43.4
 323    6:20   13.5    87    0.4   251      2.0   847.9    0.00       0    43.2
 323    6:30   13.1    86    0.1   208      0.9   847.9    0.00       0    43.6
 323    6:40   12.0    85    0.4   208      1.2   847.8    0.00       0    43.4
 323    6:50   12.0    85    0.5   200      1.6   847.9    0.00       0    43.3
 323    7:00   13.5    88    0.6   205      1.9   847.9    0.00       0    43.4
 323    7:10   14.3    88    1.1   225      2.9   848.0    0.00       1    43.3
 323    7:20   14.8    88    1.4   226      3.0   848.0    0.00       4    43.2
 323    7:30   15.1    88    1.1   209      2.3   848.1    0.00      11    43.3
 323    7:40   15.2    87    1.1   208      3.1   848.1    0.00      22    43.2
 323    7:50   15.7    87    1.5   219      3.1   848.2    0.00      55    43.2
 323    8:00   16.6    85    1.4   203      2.9   848.4    0.00      77    43.1
 323    8:10   17.0    83    1.4   209      3.4   848.4    0.00      67    43.1
 323    8:20   17.0    83    1.4   186      3.0   848.5    0.00      68    43.1
 323    8:30   16.7    83    1.1   212      2.9   848.7    0.00      72    43.1
 323    8:40   17.6    82    1.8   199      3.9   848.8    0.00     157    43.0
 323    8:50   19.1    80    2.6   192      4.5   848.9    0.00     261    42.9
 323    9:00   20.6    78    2.6   181      5.3   849.2    0.00     325    43.0
 323    9:10   21.7    76    3.6   165      5.9   849.4    0.00     347    43.0
 323    9:20   22.9    74    4.0   161      5.8   849.6    0.00     374    42.8
 323    9:30   24.6    72    3.2   167      5.8   849.8    0.00     324    43.0
 323    9:40   26.0    70    3.1   183      6.9   849.9    0.00     327    42.9
 323    9:50   27.2    68    4.2   167      7.6   849.9    0.00     413    42.9
 323   10:00   28.8    67    4.2   177      6.6   850.1    0.00     400    42.8
 323   10:10   29.6    66    4.4   176      8.6   850.2    0.00     360    42.7
 323   10:20   30.4    66    4.7   170      8.9   850.3    0.00     305    42.8
 323   10:30   31.5    64    3.8   180      7.2   850.2    0.00     283    42.8
 323   10:40   32.8    61    4.9   170      9.7   850.1    0.00     462    42.8
 323   10:50   34.3    58    5.0   171      9.8   850.1    0.00     503    42.7
 323   11:00   36.1    54    4.2   180      7.5   850.3    0.00     488    42.7
 323   11:10   35.2    53    5.1   171      9.4   850.5    0.00     407    42.8
 323   11:20   36.2    51    4.9   174      8.6   850.5    0.00     495    42.8
 323   11:30   37.0    50    5.1   167      8.4   850.4    0.00     532    42.8
 323   11:40   37.5    49    5.4   171      9.3   850.4    0.00     531    42.8
 323   11:50   38.1    48    5.8   171     10.1   850.2    0.00     540    42.7
 323   12:00   39.0    47    5.4   162      8.9   850.1    0.00     543    42.8
 323   12:10   40.8    45    5.2   156      9.7   849.9    0.00     545    42.8
 323   12:20   41.2    43    4.9   151      9.0   849.7    0.00     547    42.8
 323   12:30   41.5    42    4.7   168      8.0   849.5    0.00     544    42.8
 323   12:40   42.7    40    4.7   162      7.5   849.4    0.00     541    42.9
 323   12:50   43.8    39    4.9   164      8.6   849.1    0.00     537    42.8
 323   13:00   44.9    36    4.9   170      9.6   848.9    0.00     530    42.9
 323   13:10   45.0    35    5.7   169      9.4   848.8    0.00     523    43.0
 323   13:20   45.1    33    5.5   170      9.8   848.5    0.00     515    42.9
 323   13:30   46.2    32    5.2   174      9.3   848.4    0.00     504    43.0
 323   13:40   47.1    31    5.8   170      8.8   848.3    0.00     492    43.1
 323   13:50   48.3    29    4.4   169     11.0   848.2    0.00     478    43.1
 323   14:00   49.6    27    4.6   159      9.1   848.2    0.00     462    43.1
 323   14:10   50.2    25    4.9   161      9.2   848.2    0.00     447    43.2
 323   14:20   50.0    25    4.4   159      7.1   848.0    0.00     246    43.2
 323   14:30   49.2    27    4.3   159      6.9   847.6    0.00      31    43.3
 323   14:40   49.4    27    4.1   165      8.3   847.2    0.00      34    43.3
 323   14:50   49.6    27    4.1   166      6.9   846.9    0.00      43    43.3
 323   15:00   50.1    28    3.3   167      6.4   846.7    0.00      51    43.3
 323   15:10   50.8    28    3.3   158      7.1   846.6    0.00     110    43.4
 323   15:20   51.4    27    4.1   155      8.2   846.5    0.00     187    43.4
 323   15:30   52.5    26    4.9   168      7.6   846.6    0.00     286    43.5
 323   15:40   52.8    25    4.8   169      8.4   846.8    0.00     255    43.6
 323   15:50   53.1    24    4.0   169      7.3   847.0    0.00     214    43.6
 323   16:00   53.3    24    3.4   158      7.3   847.0    0.00     146    43.6
 323   16:10   52.4    25    3.7   156      6.5   847.0    0.00      75    43.8
 323   16:20   50.8    28    3.8   152      6.1   847.0    0.00      41    43.7
 323   16:30   49.6    30    2.4   156      4.7   847.0    0.00      37    43.8
 323   16:40   48.5    32    2.0   148      3.9   846.8    0.00      34    43.9
 323   16:50   47.7    33    1.9   201      3.4   846.6    0.00      23    43.9
 323   17:00   46.9    34    1.7   207      3.3   846.3    0.00      16    43.8
 323   17:10   45.8    35    1.2   222      2.9   846.1    0.00       9    43.9
 323   17:20   45.4    35    1.2   223      2.4   846.0    0.00       2    44.0
 323   17:30   45.6    33    1.3   227      3.0   845.8    0.00       0    44.0
 323   17:40   45.1    34    0.7   219      1.8   845.6    0.00       0    43.9
 323   17:50   42.7    40    0.5   172      2.0   845.6    0.00       0    44.0
 323   18:00   40.1    45    0.3   181      1.9   845.5    0.00       0    44.1
 323   18:10   39.9    45    0.7   284      1.4   845.5    0.00       0    44.0
 323   18:20   39.4    46    0.6    22      1.9   845.5    0.00       0    44.1
 323   18:30   38.8    42    1.0   323      2.5   845.4    0.00       0    44.1
 323   18:40   38.7    42    0.9    13      1.8   845.5    0.00       0    44.0
 323   18:50   38.2    45    1.0    12      2.7   845.4    0.00       0    44.1
 323   19:00   35.9    51    1.2    35      2.3   845.5    0.00       0    44.0
 323   19:10   33.4    57    0.3    32      1.3   845.4    0.00       0    44.0
 323   19:20   33.9    57    0.6   334      2.0   845.3    0.00       0    44.1
 323   19:30   34.9    54    1.2   300      2.4   845.3    0.00       0    44.1
 323   19:40   35.2    53    0.6   311      1.8   845.2    0.00       0    44.0
 323   19:50   35.0    54    0.9    31      2.2   845.1    0.00       0    44.1
 323   20:00   32.6    57    1.5    35      2.5   845.0    0.00       0    44.2
 323   20:10   30.8    60    0.5    27      2.0   844.9    0.00       0    44.3
 323   20:20   30.2    62    1.4   220      2.8   844.8    0.00       0    44.2
 323   20:30   30.6    62    0.7   259      2.0   844.8    0.00       0    44.1
 323   20:40   30.6    58    0.2   280      0.8   844.8    0.00       0    44.0
 323   20:50   30.8    54    0.8    54      2.6   845.0    0.00       0    44.1
 323   21:00   28.4    60    0.5   140      2.3   845.0    0.00       0    44.2
 323   21:10   27.4    59    1.0   197      2.8   844.9    0.00       0    44.0
 323   21:20   28.3    57    1.9   255      3.1   844.8    0.00       0    44.2
 323   21:30   29.8    55    2.2   253      3.8   844.8    0.00       0    44.0
 323   21:40   30.7    59    1.7   224      3.3   844.8    0.00       0    44.0
 323   21:50   31.6    58    2.0   232      4.0   845.0    0.00       0    44.0
 323   22:00   32.6    54    2.0   210      3.6   845.2    0.00       0    43.9
 323   22:10   31.6    54    1.5   213      3.1   845.1    0.00       0    43.8
 323   22:20   31.9    54    0.5   224      1.7   845.1    0.00       0    43.9
 323   22:30   32.1    53    0.6   229      3.0   844.9    0.00       0    44.0
 323   22:40   35.4    42    2.4   232      5.6   844.9    0.00       0    43.9
 323   22:50   37.6    36    1.8   228      3.9   844.9    0.00       0    43.9
 323   23:00   37.0    38    1.8   210      4.3   845.0    0.00       0    43.9
 323   23:10   37.9    34    2.4   207      5.2   845.0    0.00       0    44.1
 323   23:20   38.6    32    2.5   213      5.6   845.1    0.00       0    43.8
 323   23:30   39.2    31    2.2   222      7.2   845.2    0.00       0    43.9
 323   23:40   38.1    33    3.0   233      9.3   845.2    0.00       0    43.9
 323   23:50   36.7    36    2.2   220      5.0   845.1    0.00       0    43.9
 324    0:00   35.2    39    2.0   198      4.0   845.1    0.00       0    43.9
 324    0:10   34.9    39    1.7   200      4.2   845.0    0.00       0    44.0
 324    0:20   34.5    39    1.8   224      4.5   845.0    0.00       0    43.8
 324    0:30   34.8    38    1.7   219      6.4   845.0    0.00       0    43.8
 324    0:40   34.9    40    2.1   207      4.5   845.0    0.00       0    43.8
 324    0:50   34.9    39    2.2   210      5.8   845.1    0.00       0    43.8
 324    1:00   35.1    38    2.2   204      5.8   845.0    0.00       0    43.7
 324    1:10   35.2    38    1.7   206      4.3   845.0    0.00       0    43.8
 324    1:20   36.1    34    2.4   196      6.2   845.1    0.00       0    43.7
 324    1:30   38.1    30    2.4   210      5.0   845.1    0.00       0    43.8
 324    1:40   38.5    29    2.4   224      6.9   845.1    0.00       0    43.7
 324    1:50   38.9    28    2.4   213      5.6   845.2    0.00       0    43.6
 324    2:00   38.1    30    2.3   214      5.6   845.1    0.00       0    43.6
 324    2:10   36.9    33    2.7   221      5.4   845.1    0.00       0    43.8

Return to Milford, Utah graphs page.


Western Regional Climate Center,wrcc@dri.edu